Flag for Brazil Weather past 2 weeks in Boa Vista, Roraima, Brazil

Now
75 °F

Passing clouds.


Feels Like: 76 °F
Forecast: 76 / 87 °F
Wind: 9 mph from Northeast

Location: Boa Vista Aeropor-To

Current Time: Feb 1, 2015 at 5:07:57 AM

Latest Report: Feb 1, 2015 at 4:00 AM


Visibility: N/A

Pressure: 29.86 "Hg

Humidity: 78%

Dew point: 68 °F

Location of Boa VistaLocation

Historic Weather in Boa Vista — Graph

°F

Boa Vista temperature yesterday

Maximum temperature yesterday: 88 °F (at 1:00 PM)
Minimum temperature yesterday: 75 °F (at 1:00 AM)
Average temperature yesterday: 81 °F

Past Weeks' High & Low Weather Summary

 TemperatureHumidityPressure
High91 °F (Jan 17, 2:00 PM)100% (Jan 29, 2:00 AM)29.98 "Hg (Jan 29, 2:00 AM)
Low72 °F (Jan 17, 4:00 AM)36% (Jan 24, 4:00 PM)29.74 "Hg (Jan 30, 5:00 PM)
Average80 °F64%29.87 "Hg
* Reported Jan 17 4:00 AM — Feb 1 4:00 AM, Boa Vista, Weather by CustomWeather, © 2014

Note: Actual official high and low records may vary slightly from our data, if they occured in-between our weather recording intervals... More about our weather records

Advertising

Boa Vista weather history for previous 24 hours

 ConditionsComfort  
Time TempWeatherWind HumidityBarometerVisibility
4:00 AM
Feb 1
75 °FPassing clouds.9 mph78%29.86 "HgN/A
3:00 AM75 °FPassing clouds.8 mph78%29.86 "HgN/A
2:00 AM77 °FPassing clouds.9 mph74%29.89 "HgN/A
1:00 AM77 °FPassing clouds.13 mph74%29.89 "HgN/A
12:00 AM77 °FPassing clouds.15 mph69%29.89 "HgN/A
11:00 PM
Jan 31
79 °FClear.16 mph65%29.89 "Hg10 mi
10:00 PM82 °FClear.8 mph58%29.86 "Hg10 mi
9:00 PM82 °FPassing clouds.8 mph55%29.86 "HgN/A
8:00 PM84 °FPassing clouds.8 mph51%29.83 "HgN/A
7:00 PM84 °FPassing clouds.7 mph51%29.80 "HgN/A
6:00 PM86 °FScattered clouds.12 mph49%29.80 "HgN/A
5:00 PM88 °FPartly sunny.9 mph46%29.77 "HgN/A
4:00 PM88 °FPartly sunny.9 mph49%29.77 "HgN/A
3:00 PM88 °FScattered showers. Partly sunny.15 mph46%29.80 "HgN/A
2:00 PM88 °FScattered showers. Partly sunny.16 mph49%29.83 "HgN/A
1:00 PM88 °FPartly sunny.14 mph49%29.86 "HgN/A
12:00 PM86 °FPartly sunny.15 mph52%29.89 "HgN/A
11:00 AM84 °FPartly sunny.17 mph58%29.92 "HgN/A
10:00 AM82 °FScattered clouds.13 mph62%29.95 "HgN/A
9:00 AM79 °FScattered showers. Scattered clouds.17 mph70%29.95 "HgN/A
8:00 AM75 °FScattered showers. Partly sunny.12 mph78%29.95 "HgN/A
7:00 AM75 °FPartly sunny.13 mph74%29.92 "HgN/A
6:00 AM75 °FPassing clouds.14 mph74%29.86 "HgN/A
5:00 AM75 °FClear.10 mph74%29.86 "Hg10 mi
Weather by CustomWeather, © 2014

See weather overviewHow to use our weather pages